Time,TemperatureF,DewpointF,PressureIn,WindDirection,WindDirectionDegrees,WindSpeedMPH,WindSpeedGustMPH,Humidity,HourlyPrecipIn,Conditions,Clouds,dailyrainin,SolarRadiationWatts/m^2,SoftwareType,DateUTC
2013-08-06 00:44:00,68.0,55.0,-100.00,NNW,339,4.0,13.0,63,-99.99,,,0.00,0.000000,,2013-08-06 07:44:00,
2013-08-06 00:53:00,68.0,55.0,-100.00,NNW,339,4.0,13.0,63,-99.99,,,0.00,0.000000,,2013-08-06 07:53:00,
2013-08-06 01:01:00,68.0,55.0,-100.00,NNW,339,4.0,13.0,63,-99.99,,,0.00,0.000000,,2013-08-06 08:01:00,
2013-08-06 01:11:00,68.0,55.0,-100.00,NNW,339,4.0,13.0,63,-99.99,,,0.00,0.000000,,2013-08-06 08:11:00,
2013-08-06 01:43:00,66.0,54.0,-100.00,NNW,332,4.0,11.0,66,0.00,,,0.00,0.000000,,2013-08-06 08:43:00,
2013-08-06 01:52:00,66.0,54.0,-100.00,NNW,332,4.0,11.0,66,0.00,,,0.00,0.000000,,2013-08-06 08:52:00,
2013-08-06 02:01:00,66.0,54.0,-100.00,NNW,332,4.0,11.0,66,0.00,,,0.00,0.000000,,2013-08-06 09:01:00,
2013-08-06 02:11:00,66.0,54.0,-100.00,NNW,332,4.0,11.0,66,0.00,,,0.00,0.000000,,2013-08-06 09:11:00,
2013-08-06 02:43:00,65.0,54.0,-100.00,NW,313,3.0,12.0,67,0.00,,,0.00,0.000000,,2013-08-06 09:43:00,
2013-08-06 02:52:00,65.0,54.0,-100.00,NW,313,3.0,12.0,67,0.00,,,0.00,0.000000,,2013-08-06 09:52:00,
2013-08-06 03:01:00,65.0,54.0,-100.00,NW,313,3.0,12.0,67,0.00,,,0.00,0.000000,,2013-08-06 10:01:00,
2013-08-06 03:11:00,65.0,54.0,-100.00,NW,313,3.0,12.0,67,0.00,,,0.00,0.000000,,2013-08-06 10:11:00,
2013-08-06 03:43:00,64.0,54.0,-100.00,WNW,302,3.0,6.0,70,0.00,,,0.00,0.000000,,2013-08-06 10:43:00,
2013-08-06 03:53:00,64.0,54.0,-100.00,WNW,302,3.0,6.0,70,0.00,,,0.00,0.000000,,2013-08-06 10:53:00,
2013-08-06 04:01:00,64.0,54.0,-100.00,WNW,302,3.0,6.0,70,0.00,,,0.00,0.000000,,2013-08-06 11:01:00,
2013-08-06 04:11:00,64.0,54.0,-100.00,WNW,302,3.0,6.0,70,0.00,,,0.00,0.000000,,2013-08-06 11:11:00,
2013-08-06 04:32:00,64.0,55.0,-100.00,ESE,122,2.0,8.0,73,0.00,,,0.00,0.000000,,2013-08-06 11:32:00,
2013-08-06 04:43:00,64.0,55.0,-100.00,ESE,122,2.0,8.0,73,0.00,,,0.00,0.000000,,2013-08-06 11:43:00,
2013-08-06 04:53:00,64.0,55.0,-100.00,ESE,122,2.0,8.0,73,0.00,,,0.00,0.000000,,2013-08-06 11:53:00,
2013-08-06 05:01:00,64.0,55.0,-100.00,ESE,122,2.0,8.0,73,0.00,,,0.00,0.000000,,2013-08-06 12:01:00,
2013-08-06 05:11:00,64.0,55.0,-100.00,ESE,122,2.0,8.0,73,0.00,,,0.00,0.000000,,2013-08-06 12:11:00,
2013-08-06 05:43:00,64.0,54.0,-100.00,NE,47,4.0,9.0,71,0.00,,,0.00,0.000000,,2013-08-06 12:43:00,
2013-08-06 05:52:00,64.0,54.0,-100.00,NE,47,4.0,9.0,71,0.00,,,0.00,0.000000,,2013-08-06 12:52:00,
2013-08-06 06:01:00,64.0,54.0,-100.00,NE,47,4.0,9.0,71,0.00,,,0.00,0.000000,,2013-08-06 13:01:00,
2013-08-06 06:11:00,64.0,54.0,-100.00,NE,47,4.0,9.0,71,0.00,,,0.00,0.000000,,2013-08-06 13:11:00,
2013-08-06 06:42:00,64.0,53.0,-100.00,NE,36,5.0,8.0,68,0.00,,,0.00,1.000000,,2013-08-06 13:42:00,
2013-08-06 06:53:00,64.0,53.0,-100.00,NE,36,5.0,8.0,68,0.00,,,0.00,1.000000,,2013-08-06 13:53:00,
2013-08-06 07:01:00,64.0,53.0,-100.00,NE,36,5.0,8.0,68,0.00,,,0.00,1.000000,,2013-08-06 14:01:00,
2013-08-06 07:11:00,64.0,53.0,-100.00,NE,36,5.0,8.0,68,0.00,,,0.00,1.000000,,2013-08-06 14:11:00,
2013-08-06 07:42:00,66.0,52.0,-100.00,NE,52,5.0,7.0,60,0.00,,,0.00,38.000000,,2013-08-06 14:42:00,
2013-08-06 07:53:00,66.0,52.0,-100.00,NE,52,5.0,7.0,60,0.00,,,0.00,38.000000,,2013-08-06 14:53:00,
2013-08-06 08:02:00,66.0,52.0,-100.00,NE,52,5.0,7.0,60,0.00,,,0.00,38.000000,,2013-08-06 15:02:00,
2013-08-06 08:11:00,66.0,52.0,-100.00,NE,52,5.0,7.0,60,0.00,,,0.00,38.000000,,2013-08-06 15:11:00,
2013-08-06 08:44:00,70.0,53.0,-100.00,East,80,4.0,9.0,54,0.00,,,0.00,165.000000,,2013-08-06 15:44:00,
2013-08-06 08:52:00,70.0,53.0,-100.00,East,80,4.0,9.0,54,0.00,,,0.00,165.000000,,2013-08-06 15:52:00,
2013-08-06 09:01:00,70.0,53.0,-100.00,East,80,4.0,9.0,54,0.00,,,0.00,165.000000,,2013-08-06 16:01:00,
2013-08-06 09:11:00,70.0,53.0,-100.00,East,80,4.0,9.0,54,0.00,,,0.00,165.000000,,2013-08-06 16:11:00,
2013-08-06 09:43:00,73.0,54.0,-100.00,ENE,64,4.0,10.0,51,0.00,,,0.00,335.000000,,2013-08-06 16:43:00,
2013-08-06 09:52:00,73.0,54.0,-100.00,ENE,64,4.0,10.0,51,0.00,,,0.00,335.000000,,2013-08-06 16:52:00,
2013-08-06 10:02:00,73.0,54.0,-100.00,ENE,64,4.0,10.0,51,0.00,,,0.00,335.000000,,2013-08-06 17:02:00,
2013-08-06 10:11:00,73.0,54.0,-100.00,ENE,64,4.0,10.0,51,0.00,,,0.00,335.000000,,2013-08-06 17:11:00,
2013-08-06 10:44:00,75.0,53.0,-100.00,East,94,5.0,10.0,47,0.00,,,0.00,509.000000,,2013-08-06 17:44:00,
2013-08-06 10:52:00,75.0,53.0,-100.00,East,94,5.0,10.0,47,0.00,,,0.00,509.000000,,2013-08-06 17:52:00,
2013-08-06 11:01:00,75.0,53.0,-100.00,East,94,5.0,10.0,47,0.00,,,0.00,509.000000,,2013-08-06 18:01:00,
2013-08-06 11:11:00,75.0,53.0,-100.00,East,94,5.0,10.0,47,0.00,,,0.00,509.000000,,2013-08-06 18:11:00,
2013-08-06 11:44:00,79.0,52.0,-100.00,East,81,5.0,9.0,39,0.00,,,0.00,665.000000,,2013-08-06 18:44:00,
2013-08-06 11:52:00,79.0,52.0,-100.00,East,81,5.0,9.0,39,0.00,,,0.00,665.000000,,2013-08-06 18:52:00,
2013-08-06 12:01:00,79.0,52.0,-100.00,East,81,5.0,9.0,39,0.00,,,0.00,665.000000,,2013-08-06 19:01:00,
2013-08-06 12:11:00,79.0,52.0,-100.00,East,81,5.0,9.0,39,0.00,,,0.00,665.000000,,2013-08-06 19:11:00,
2013-08-06 12:42:00,80.0,53.0,-100.00,ENE,60,4.0,10.0,39,0.00,,,0.00,729.000000,,2013-08-06 19:42:00,
2013-08-06 12:52:00,80.0,53.0,-100.00,ENE,60,4.0,10.0,39,0.00,,,0.00,729.000000,,2013-08-06 19:52:00,
2013-08-06 13:01:00,80.0,53.0,-100.00,ENE,60,4.0,10.0,39,0.00,,,0.00,729.000000,,2013-08-06 20:01:00,
2013-08-06 13:11:00,80.0,53.0,-100.00,ENE,60,4.0,10.0,39,0.00,,,0.00,729.000000,,2013-08-06 20:11:00,
2013-08-06 13:44:00,81.0,51.0,-100.00,NE,42,3.0,18.0,35,0.00,,,0.00,681.000000,,2013-08-06 20:44:00,
2013-08-06 13:52:00,81.0,51.0,-100.00,NE,42,3.0,18.0,35,0.00,,,0.00,681.000000,,2013-08-06 20:52:00,
2013-08-06 14:01:00,81.0,51.0,-100.00,NE,42,3.0,18.0,35,0.00,,,0.00,681.000000,,2013-08-06 21:01:00,
2013-08-06 14:11:00,81.0,51.0,-100.00,NE,42,3.0,18.0,35,0.00,,,0.00,681.000000,,2013-08-06 21:11:00,
2013-08-06 14:43:00,83.0,51.0,-100.00,NNW,330,3.0,7.0,33,0.00,,,0.00,623.000000,,2013-08-06 21:43:00,
2013-08-06 14:52:00,83.0,51.0,-100.00,NNW,330,3.0,7.0,33,0.00,,,0.00,623.000000,,2013-08-06 21:52:00,
2013-08-06 15:01:00,83.0,51.0,-100.00,NNW,330,3.0,7.0,33,0.00,,,0.00,623.000000,,2013-08-06 22:01:00,
2013-08-06 15:11:00,83.0,51.0,-100.00,NNW,330,3.0,7.0,33,0.00,,,0.00,623.000000,,2013-08-06 22:11:00,
2013-08-06 15:43:00,81.0,50.0,-100.00,NW,322,8.0,16.0,34,0.00,,,0.00,665.000000,,2013-08-06 22:43:00,
2013-08-06 15:53:00,81.0,50.0,-100.00,NW,322,8.0,16.0,34,0.00,,,0.00,665.000000,,2013-08-06 22:53:00,
2013-08-06 16:01:00,81.0,50.0,-100.00,NW,322,8.0,16.0,34,0.00,,,0.00,665.000000,,2013-08-06 23:01:00,
2013-08-06 16:11:00,81.0,50.0,-100.00,NW,322,8.0,16.0,34,0.00,,,0.00,665.000000,,2013-08-06 23:11:00,
2013-08-06 16:33:00,79.0,55.0,-100.00,NW,321,8.0,16.0,43,0.00,,,0.00,600.000000,,2013-08-06 23:33:00,
2013-08-06 16:43:00,79.0,55.0,-100.00,NW,321,8.0,16.0,43,0.00,,,0.00,600.000000,,2013-08-06 23:43:00,
2013-08-06 16:52:00,79.0,55.0,-100.00,NW,321,8.0,16.0,43,0.00,,,0.00,600.000000,,2013-08-06 23:52:00,
2013-08-06 17:01:00,79.0,55.0,-100.00,NW,321,8.0,16.0,43,0.00,,,0.00,600.000000,,2013-08-07 00:01:00,
2013-08-06 17:11:00,79.0,55.0,-100.00,NW,321,8.0,16.0,43,0.00,,,0.00,600.000000,,2013-08-07 00:11:00,
2013-08-06 17:52:00,72.0,55.0,-100.00,WNW,295,14.0,21.0,55,0.00,,,0.00,305.000000,,2013-08-07 00:52:00,
2013-08-06 18:01:00,72.0,55.0,-100.00,WNW,295,14.0,21.0,55,0.00,,,0.00,305.000000,,2013-08-07 01:01:00,
2013-08-06 18:11:00,72.0,55.0,-100.00,WNW,295,14.0,21.0,55,0.00,,,0.00,305.000000,,2013-08-07 01:11:00,
2013-08-06 18:43:00,68.0,54.0,-100.00,WNW,301,17.0,22.0,62,0.00,,,0.00,168.000000,,2013-08-07 01:43:00,
2013-08-06 18:52:00,68.0,54.0,-100.00,WNW,301,17.0,22.0,62,0.00,,,0.00,168.000000,,2013-08-07 01:52:00,
2013-08-06 19:02:00,68.0,54.0,-100.00,WNW,301,17.0,22.0,62,0.00,,,0.00,168.000000,,2013-08-07 02:02:00,
2013-08-06 19:11:00,68.0,54.0,-100.00,WNW,301,17.0,22.0,62,0.00,,,0.00,168.000000,,2013-08-07 02:11:00,
2013-08-06 19:43:00,65.0,53.0,-100.00,NW,304,15.0,23.0,64,0.00,,,0.00,84.000000,,2013-08-07 02:43:00,
2013-08-06 19:53:00,65.0,53.0,-100.00,NW,304,15.0,23.0,64,0.00,,,0.00,84.000000,,2013-08-07 02:53:00,
2013-08-06 20:01:00,65.0,53.0,-100.00,NW,304,15.0,23.0,64,0.00,,,0.00,84.000000,,2013-08-07 03:01:00,
2013-08-06 20:11:00,65.0,53.0,-100.00,NW,304,15.0,23.0,64,0.00,,,0.00,84.000000,,2013-08-07 03:11:00,
2013-08-06 20:32:00,63.0,51.0,-100.00,NW,307,14.0,17.0,64,0.00,,,0.00,32.000000,,2013-08-07 03:32:00,
2013-08-06 20:43:00,63.0,51.0,-100.00,NW,307,14.0,17.0,64,0.00,,,0.00,32.000000,,2013-08-07 03:43:00,
2013-08-06 20:52:00,63.0,51.0,-100.00,NW,307,14.0,17.0,64,0.00,,,0.00,32.000000,,2013-08-07 03:52:00,
2013-08-06 21:01:00,63.0,51.0,-100.00,NW,307,14.0,17.0,64,0.00,,,0.00,32.000000,,2013-08-07 04:01:00,
2013-08-06 21:11:00,63.0,51.0,-100.00,NW,307,14.0,17.0,64,0.00,,,0.00,32.000000,,2013-08-07 04:11:00,
2013-08-06 21:33:00,64.0,47.0,-100.00,NW,318,13.0,17.0,54,0.00,,,0.00,3.000000,,2013-08-07 04:33:00,
2013-08-06 21:43:00,64.0,47.0,-100.00,NW,318,13.0,17.0,54,0.00,,,0.00,3.000000,,2013-08-07 04:43:00,
2013-08-06 21:52:00,64.0,47.0,-100.00,NW,318,13.0,17.0,54,0.00,,,0.00,3.000000,,2013-08-07 04:52:00,
2013-08-06 22:02:00,64.0,47.0,-100.00,NW,318,13.0,17.0,54,0.00,,,0.00,3.000000,,2013-08-07 05:02:00,
2013-08-06 22:11:00,64.0,47.0,-100.00,NW,318,13.0,17.0,54,0.00,,,0.00,3.000000,,2013-08-07 05:11:00,
2013-08-06 22:32:00,66.0,47.0,-100.00,NW,324,10.0,17.0,50,0.00,,,0.00,0.000000,,2013-08-07 05:32:00,
2013-08-06 22:43:00,66.0,47.0,-100.00,NW,324,10.0,17.0,50,0.00,,,0.00,0.000000,,2013-08-07 05:43:00,
2013-08-06 22:52:00,66.0,47.0,-100.00,NW,324,10.0,17.0,50,0.00,,,0.00,0.000000,,2013-08-07 05:52:00,
2013-08-06 23:02:00,66.0,47.0,-100.00,NW,324,10.0,17.0,50,0.00,,,0.00,0.000000,,2013-08-07 06:02:00,
2013-08-06 23:11:00,66.0,47.0,-100.00,NW,324,10.0,17.0,50,0.00,,,0.00,0.000000,,2013-08-07 06:11:00,
2013-08-06 23:12:00,66.0,45.0,-100.00,NNW,337,9.0,16.0,47,0.00,,,0.00,0.000000,,2013-08-07 06:12:00,
2013-08-06 23:43:00,66.0,45.0,-100.00,NNW,337,9.0,16.0,47,0.00,,,0.00,0.000000,,2013-08-07 06:43:00,
2013-08-06 23:52:00,66.0,45.0,-100.00,NNW,337,9.0,16.0,47,0.00,,,0.00,0.000000,,2013-08-07 06:52:00,